Location: Burland Observatory
(39.4088°N, 105.4217°W)
Time: 08:51:53
(UTC-07:00)

Vanguard 3 - Pass Details

Date: 16 December 2019
Orbit: 507 x 3263 km, 33.4° (Epoch: 25 January)

Event Time Altitude Azimuth Distance (km) Brightness Sun altitude
Rises 06:42:49 0° 242° (WSW) 3,087 9.8 -6.4°
Reaches altitude 10° 06:44:51 10° 236° (SW) 2,366 9.3 -6.0°
Maximum altitude 06:50:10 47° 162° (SSE) 1,424 8.8 -5.1°
Drops below altitude 10° 06:59:17 10° 93° (E) 4,018 12.0 -3.5°
Sets 07:03:45 0° 89° (E) 5,497 12.6 -2.8°
